• In Hungary
  • List of Countries
  • For 7 days
  • Water Temperature
  • Satellite Maps
  • Weather Map
  • News
  • Weather Widgets
  • user-avatar
    Login

    Hourly Weather Puerto Cortez

    Today, 17 December, Sunday

    Time Temperature Precipitation Wind Pressure Humidity
    00:00 +24°C° 0 mm 2 mps 757 mmHg 99%
    01:00 +24°C° 0 mm 2 mps 757 mmHg 99%
    02:00 +24°C° 0 mm 2 mps 757 mmHg 99%
    03:00 +23°C° 0 mm 1 mps 757 mmHg 99%
    04:00 +23°C° 0 mm 1 mps 757 mmHg 98%
    05:00 +23°C° 0 mm 1 mps 757 mmHg 98%
    06:00 +22°C° 0 mm 1 mps 757 mmHg 98%
    07:00 +24°C° 0 mm 1 mps 758 mmHg 90%
    08:00 +27°C° 0 mm 1 mps 758 mmHg 82%
    09:00 +29°C° 0 mm 1 mps 759 mmHg 74%
    10:00 +30°C° 0 mm 1 mps 758 mmHg 67%
    11:00 +31°C° 0 mm 2 mps 758 mmHg 59%
    12:00 +34°C° 0 mm 2 mps 757 mmHg 52%
    13:00 +33°C° 0 mm 3 mps 757 mmHg 56%
    14:00 +33°C° 0 mm 3 mps 756 mmHg 60%
    15:00 +31°C° 0 mm 3 mps 755 mmHg 64%
    16:00 +29°C° 0 mm 3 mps 756 mmHg 73%
    17:00 +28°C° 0 mm 3 mps 756 mmHg 83%
    18:00 +26°C° 0 mm 3 mps 756 mmHg 92%
    19:00 +25°C° 0 mm 3 mps 756 mmHg 94%
    20:00 +25°C° 0 mm 3 mps 757 mmHg 96%
    21:00 +25°C° 0 mm 2 mps 757 mmHg 98%
    22:00 +24°C° 0 mm 2 mps 757 mmHg 98%
    23:00 +24°C° 0 mm 2 mps 757 mmHg 98%

    Tomorrow, 18 December, Monday

    Time Temperature Precipitation Wind Pressure Humidity
    00:00 +24°C° 0 mm 2 mps 757 mmHg 98%
    01:00 +24°C° 0 mm 2 mps 757 mmHg 98%
    02:00 +24°C° 0 mm 2 mps 756 mmHg 98%
    03:00 +24°C° 0 mm 1 mps 756 mmHg 98%
    04:00 +23°C° 0 mm 1 mps 756 mmHg 98%
    05:00 +23°C° 0 mm 1 mps 756 mmHg 97%
    06:00 +23°C° 0 mm 1 mps 757 mmHg 97%
    07:00 +25°C° 0 mm 1 mps 757 mmHg 89%
    08:00 +27°C° 0 mm 1 mps 758 mmHg 81%
    09:00 +29°C° 0 mm 1 mps 758 mmHg 72%
    10:00 +30°C° 0.1 mm 1 mps 758 mmHg 70%
    11:00 +31°C° 0.1 mm 2 mps 758 mmHg 68%
    12:00 +32°C° 0.1 mm 2 mps 757 mmHg 66%
    13:00 +31°C° 0.6 mm 3 mps 757 mmHg 71%
    14:00 +30°C° 0.6 mm 3 mps 756 mmHg 77%
    15:00 +30°C° 0.6 mm 4 mps 755 mmHg 82%
    16:00 +28°C° 0.2 mm 4 mps 756 mmHg 87%
    17:00 +27°C° 0.2 mm 3 mps 756 mmHg 92%
    18:00 +26°C° 0.2 mm 3 mps 756 mmHg 97%
    19:00 +26°C° 0 mm 3 mps 757 mmHg 97%
    20:00 +25°C° 0 mm 3 mps 757 mmHg 98%
    21:00 +25°C° 0 mm 3 mps 758 mmHg 99%
    22:00 +25°C° 0 mm 3 mps 758 mmHg 98%
    23:00 +25°C° 0 mm 3 mps 758 mmHg 98%

    Day after tomorrow, 19 December, Tuesday

    Time Temperature Precipitation Wind Pressure Humidity
    00:00 +25°C° 0 mm 3 mps 758 mmHg 98%
    01:00 +25°C° 0.1 mm 2 mps 757 mmHg 98%
    02:00 +24°C° 0.1 mm 2 mps 757 mmHg 98%
    03:00 +24°C° 0.1 mm 2 mps 756 mmHg 98%
    04:00 +24°C° 0 mm 2 mps 756 mmHg 98%
    05:00 +24°C° 0 mm 2 mps 757 mmHg 98%
    06:00 +24°C° 0 mm 2 mps 757 mmHg 97%
    07:00 +25°C° 0 mm 2 mps 757 mmHg 94%
    08:00 +26°C° 0 mm 2 mps 758 mmHg 91%
    09:00 +27°C° 0 mm 1 mps 758 mmHg 87%
    10:00 +29°C° 0.1 mm 2 mps 758 mmHg 81%
    11:00 +30°C° 0.1 mm 2 mps 757 mmHg 76%
    12:00 +31°C° 0.1 mm 3 mps 757 mmHg 70%
    13:00 +31°C° 0.3 mm 3 mps 756 mmHg 73%
    14:00 +30°C° 0.3 mm 3 mps 755 mmHg 76%
    15:00 +30°C° 0.3 mm 3 mps 755 mmHg 79%
    16:00 +29°C° 0.5 mm 3 mps 755 mmHg 85%
    17:00 +27°C° 0.5 mm 3 mps 755 mmHg 91%
    18:00 +26°C° 0.5 mm 3 mps 756 mmHg 97%
    19:00 +26°C° 0.4 mm 3 mps 756 mmHg 97%
    20:00 +25°C° 0.4 mm 3 mps 757 mmHg 98%
    21:00 +25°C° 0.4 mm 3 mps 757 mmHg 98%
    22:00 +25°C° 0 mm 3 mps 757 mmHg 98%
    23:00 +25°C° 0 mm 2 mps 757 mmHg 98%

    20 December, Wednesday

    Time Temperature Precipitation Wind Pressure Humidity
    00:00 +25°C° 0 mm 2 mps 757 mmHg 98%
    01:00 +24°C° 0 mm 2 mps 756 mmHg 98%
    02:00 +24°C° 0 mm 2 mps 756 mmHg 98%
    03:00 +24°C° 0 mm 2 mps 756 mmHg 98%
    04:00 +24°C° 0 mm 1 mps 756 mmHg 98%
    05:00 +24°C° 0 mm 1 mps 756 mmHg 98%
    06:00 +23°C° 0 mm 1 mps 757 mmHg 98%
    07:00 +25°C° 0 mm 1 mps 757 mmHg 91%
    08:00 +27°C° 0 mm 1 mps 758 mmHg 84%
    09:00 +27°C° 0 mm 0 mps 758 mmHg 77%
    10:00 +30°C° 0 mm 1 mps 757 mmHg 72%
    11:00 +31°C° 0 mm 1 mps 757 mmHg 66%
    12:00 +32°C° 0 mm 2 mps 756 mmHg 60%
    13:00 +32°C° 0.2 mm 2 mps 755 mmHg 65%
    14:00 +31°C° 0.2 mm 3 mps 755 mmHg 69%
    15:00 +30°C° 0.2 mm 3 mps 754 mmHg 74%
    16:00 +29°C° 0.2 mm 3 mps 755 mmHg 80%
    17:00 +27°C° 0.2 mm 3 mps 755 mmHg 87%
    18:00 +26°C° 0.2 mm 3 mps 755 mmHg 94%
    19:00 +25°C° 0.1 mm 2 mps 756 mmHg 95%
    20:00 +25°C° 0.1 mm 2 mps 756 mmHg 96%
    21:00 +25°C° 0.1 mm 2 mps 757 mmHg 98%
    22:00 +25°C° 0 mm 2 mps 756 mmHg 98%
    23:00 +24°C° 0 mm 2 mps 756 mmHg 98%

    21 December, Thursday

    Time Temperature Precipitation Wind Pressure Humidity
    00:00 +24°C° 0 mm 2 mps 756 mmHg 98%
    01:00 +24°C° 0 mm 2 mps 756 mmHg 98%
    02:00 +24°C° 0 mm 1 mps 755 mmHg 98%
    03:00 +24°C° 0 mm 1 mps 755 mmHg 97%
    04:00 +24°C° 0 mm 1 mps 755 mmHg 98%
    05:00 +23°C° 0 mm 1 mps 756 mmHg 98%
    06:00 +23°C° 0 mm 1 mps 756 mmHg 98%
    07:00 +25°C° 0 mm 1 mps 757 mmHg 90%
    08:00 +27°C° 0 mm 1 mps 757 mmHg 82%
    09:00 +29°C° 0 mm 1 mps 758 mmHg 74%
    10:00 +30°C° 0 mm 1 mps 757 mmHg 67%
    11:00 +32°C° 0 mm 2 mps 756 mmHg 59%
    12:00 +34°C° 0 mm 2 mps 756 mmHg 52%
    13:00 +34°C° 0 mm 2 mps 755 mmHg 55%
    14:00 +33°C° 0 mm 3 mps 755 mmHg 57%
    15:00 +33°C° 0 mm 3 mps 754 mmHg 60%
    16:00 +30°C° 0 mm 3 mps 755 mmHg 70%
    17:00 +28°C° 0 mm 3 mps 755 mmHg 81%
    18:00 +26°C° 0 mm 3 mps 755 mmHg 91%
    19:00 +26°C° 0 mm 3 mps 756 mmHg 93%
    20:00 +25°C° 0 mm 3 mps 756 mmHg 96%
    21:00 +25°C° 0 mm 2 mps 757 mmHg 98%
    22:00 +25°C° 0.1 mm 2 mps 756 mmHg 98%
    23:00 +25°C° 0.1 mm 2 mps 756 mmHg 98%

    22 December, Friday

    Time Temperature Precipitation Wind Pressure Humidity
    00:00 +25°C° 0.1 mm 2 mps 756 mmHg 98%
    01:00 +25°C° 0.1 mm 2 mps 756 mmHg 98%
    02:00 +24°C° 0.1 mm 2 mps 755 mmHg 98%
    03:00 +24°C° 0.1 mm 2 mps 755 mmHg 98%
    04:00 +24°C° 0 mm 2 mps 755 mmHg 98%
    05:00 +23°C° 0 mm 1 mps 756 mmHg 98%
    06:00 +23°C° 0 mm 1 mps 756 mmHg 98%
    07:00 +25°C° 0 mm 1 mps 757 mmHg 89%
    08:00 +27°C° 0 mm 1 mps 757 mmHg 79%
    09:00 +30°C° 0 mm 1 mps 757 mmHg 70%
    10:00 +31°C° 0 mm 1 mps 757 mmHg 65%
    11:00 +32°C° 0 mm 1 mps 756 mmHg 61%
    12:00 +32°C° 0 mm 1 mps 756 mmHg 56%
    13:00 +32°C° 0.1 mm 2 mps 755 mmHg 58%
    14:00 +32°C° 0.1 mm 2 mps 755 mmHg 60%
    15:00 +33°C° 0.1 mm 3 mps 754 mmHg 63%
    16:00 +30°C° 0.2 mm 3 mps 755 mmHg 72%
    17:00 +28°C° 0.2 mm 3 mps 755 mmHg 82%
    18:00 +26°C° 0.2 mm 3 mps 755 mmHg 92%
    19:00 +26°C° 0 mm 3 mps 756 mmHg 94%
    20:00 +25°C° 0 mm 3 mps 756 mmHg 96%
    21:00 +25°C° 0 mm 2 mps 756 mmHg 97%
    22:00 +24°C° 0 mm 2 mps 756 mmHg 97%
    23:00 +24°C° 0 mm 2 mps 756 mmHg 97%
    Show more